Tracking 25710 objects as of 6-Jul-2022
HD Live streaming from Space Station
objects crossing your sky now

STARLINK-2686

Track STARLINK-2686 now!
10-day predictions
STARLINK-2686 is classified as:


NORAD ID: 48464
Int'l Code: 2021-040AN
Perigee: 553.2 km
Apogee: 555.5 km
Inclination: 53.1 °
Period: 95.6 minutes
Semi major axis: 6925 km
RCS: Unknown
Launch date: May 9, 2021
Source: United States (US)
Launch site: AIR FORCE EASTERN TEST RANGE (AFETR)
aabbcc
Your satellite tracking list
Your tracking list is empty




NASA's NSSDC Master Catalog

Two Line Element Set (TLE):
1 48464U 21040AN  22186.24411843 -.00000844  00000-0 -37797-4 0  9994
2 48464  53.0550 102.5885 0001602  71.2461 288.8702 15.06398132 64008
Source of the keplerian elements: AFSPC